OMNI-L2 (52771 NORAD) Tracking and Keplerian Element Data

This shows tracking and keplerian element data for the satellite.

Feedback or suggestion? Click here.




ElementValue
Catalog52771
NameOMNI-L2
Epoch Orbit716
Epoch Day193.08440937
Epoch Year2022
RAAN307.4993
Inclination97.5216
Eccentricity0.0015097
Argument of Perigee65.9317
Mean Anonmoly294.3492
Mean Motion15.13811435
Decay Rate6.295E-05
L11 52771U 22057AR 22193.08440937 .00006295 00000+0 35126-3 0 9991
L22 52771 97.5216 307.4993 0015097 65.9317 294.3492 15.13811435 7161

Live tracking and technical data element details for OMNI-L2 (NORAD 52771). OMNI-L2 can be tracked NOW for your location showing map with azimuth and elevation plus other details from your city location.

Track the satellite on the map from your city or location and see movement details for azimuth, elevation, latitude, longitude, range, height, and movement on the map or in text.







IsCatalogInMostPopularTable: catalog: 52771, numindb: 4
Update: records affected: 1



GetName: 52771 OMNI-L2

Hit Count: updated at: Sun, 14 Aug 2022 00:48:54 GMT